Location: Lombray
(49.5154°N, 3.1089°E)
Time: 04:35:30
(UTC+00:00)

Cosmos 1437 Rocket - Pass Details

Date: 15 May 2026
Orbit: 439 x 476 km, 81.2° (Epoch: 6 June)

Event Time Altitude Azimuth Distance (km) Brightness Sun altitude
Exits shadow 21:36:19 - 218° (SW) 2,032 5.5 -15.8°
Reaches altitude 10° 21:37:23 10° 225° (SW) 1,625 5.1 -15.9°
Maximum altitude 21:40:36 31° 289° (WNW) 852 4.3 -16.2°
Drops below altitude 10° 21:43:52 10° 354° (N) 1,655 6.3 -16.5°
Sets 21:46:09 0° 5° (N) 2,543 7.2 -16.6°
